TimeCDT,TemperatureF,Dew PointF,Humidity,Sea Level PressureIn,VisibilityMPH,Wind Direction,Wind SpeedMPH,Gust SpeedMPH,PrecipitationIn,Events,Conditions,WindDirDegrees,DateUTC
12:52 AM,75.9,71.1,85,29.81,10.0,Calm,Calm,-,N/A,,Clear,0,2013-08-07 05:52:00
1:52 AM,75.0,71.1,87,29.81,10.0,Calm,Calm,-,N/A,,Clear,0,2013-08-07 06:52:00
2:52 AM,75.0,71.1,87,29.80,10.0,SSW,4.6,-,N/A,,Partly Cloudy,210,2013-08-07 07:52:00
3:52 AM,73.9,71.1,91,29.79,10.0,SW,3.5,-,0.00,Rain,Light Rain,220,2013-08-07 08:52:00
4:52 AM,73.0,71.1,93,29.78,10.0,SW,3.5,-,0.00,,Clear,230,2013-08-07 09:52:00
5:52 AM,72.0,70.0,93,29.79,10.0,Calm,Calm,-,N/A,,Partly Cloudy,0,2013-08-07 10:52:00
6:14 AM,71.6,69.8,94,29.82,6.0,Calm,Calm,-,N/A,,Mostly Cloudy,0,2013-08-07 11:14:00
6:52 AM,73.0,70.0,90,29.82,10.0,Calm,Calm,-,N/A,,Overcast,0,2013-08-07 11:52:00
7:52 AM,75.0,71.1,87,29.83,10.0,West,3.5,-,N/A,,Mostly Cloudy,270,2013-08-07 12:52:00
7:59 AM,75.2,71.6,89,29.84,10.0,West,3.5,-,N/A,,Partly Cloudy,270,2013-08-07 12:59:00
8:52 AM,77.0,72.0,84,29.82,10.0,West,8.1,-,N/A,,Clear,280,2013-08-07 13:52:00
9:52 AM,81.0,72.0,74,29.84,10.0,West,8.1,-,N/A,,Scattered Clouds,280,2013-08-07 14:52:00
10:52 AM,82.9,70.0,65,29.83,10.0,WNW,8.1,-,N/A,,Clear,300,2013-08-07 15:52:00
11:52 AM,84.0,71.1,65,29.85,10.0,West,6.9,-,N/A,,Clear,270,2013-08-07 16:52:00
12:52 PM,86.0,68.0,55,29.84,10.0,NW,10.4,-,N/A,,Partly Cloudy,320,2013-08-07 17:52:00
1:52 PM,86.0,66.9,53,29.84,10.0,NW,11.5,-,N/A,,Partly Cloudy,320,2013-08-07 18:52:00
2:52 PM,86.0,66.0,51,29.84,10.0,NW,12.7,-,N/A,,Scattered Clouds,310,2013-08-07 19:52:00
3:52 PM,84.9,64.9,51,29.84,10.0,NW,6.9,-,N/A,,Partly Cloudy,320,2013-08-07 20:52:00
4:52 PM,82.9,64.0,53,29.86,10.0,North,8.1,-,N/A,,Mostly Cloudy,10,2013-08-07 21:52:00
5:52 PM,82.0,63.0,52,29.86,10.0,North,6.9,-,N/A,,Partly Cloudy,10,2013-08-07 22:52:00
6:52 PM,81.0,63.0,54,29.88,10.0,North,6.9,-,N/A,,Partly Cloudy,350,2013-08-07 23:52:00
7:52 PM,78.1,64.0,62,29.90,10.0,NNW,10.4,-,N/A,,Scattered Clouds,340,2013-08-08 00:52:00
8:52 PM,73.9,63.0,68,29.93,10.0,North,10.4,-,N/A,,Clear,360,2013-08-08 01:52:00
9:52 PM,72.0,61.0,68,29.95,10.0,NNE,5.8,-,N/A,,Clear,20,2013-08-08 02:52:00
10:52 PM,70.0,61.0,73,29.95,10.0,NNE,4.6,-,N/A,,Clear,20,2013-08-08 03:52:00
11:52 PM,69.1,60.1,73,29.96,10.0,NNE,4.6,-,N/A,,Clear,20,2013-08-08 04:52:00